Weather Roundup
Issued by NWS

Home | Current Version | Previous Version | Graphics & Text | Print | Product List | Glossary Off
Versions: 1 2 3 4 5 6 7 8 9 10 11 12 13 14 15 16 17 18 19 20 21 22 23 24 25 26 27 28 29 30 31 32 33 34 35 36 37 38 39 40 41 42 43 44 45 46 47 48 49 50

000
NZUS93 KARX 251810
HRRWXR

CURRENT HOURLY OBSERVATIONS ACROSS
MUCH OF THE UPPER MISSISSIPPI VALLEY
NATIONAL WEATHER SERVICE LA CROSSE WI
100 PM CDT SAT OCT 25 2014


...SOUTHEAST MINNESOTA...


CITY           SKY/WX    TMP DP  RH WIND       PRES   REMARKS
ROCHESTER      SUNNY     62  31  31 NW15G24   30.06F
ROCHESTER/MAYO FAIR      60  28  29 NW21G28   30.05F
WINONA         MOSUNNY   63  34  34 NW15      30.02S
AUSTIN         SUNNY     63  32  31 NW13G22   30.07F
ALBERT LEA     SUNNY     64  30  27 NW12G18   30.08F
DODGE CENTER   SUNNY     61  30  31 NW17G24   30.06F
PRESTON        SUNNY     61  31  32 NW13G23   30.05F
OWATONNA       SUNNY     63  27  25 NW14G24   30.08F
FARIBAULT      SUNNY     63  28  27 NW14G21   30.08S
$$

...ELSEWHERE IN MINNESOTA...


CITY           SKY/WX    TMP DP  RH WIND       PRES   REMARKS
MINNEAPOLIS    PTSUNNY   58  30  34 NW18      30.05S
INTNL FALLS    SUNNY     53  30  41 W17G33    29.90R
DULUTH         SUNNY     56  30  37 W23G29    29.90F
RED WING       MOSUNNY   63  28  27 NW13G25   30.02S
REDWOOD FALLS  SUNNY     62  32  32 NW14G21   30.12S
MANKATO        SUNNY     63  30  29 NW15G24   30.10S
WORTHINGTON    SUNNY     63  30  29 N13       30.15S
FAIRMONT       SUNNY     64  -6   6 NW13      30.11F
$$

...SOUTHWEST WISCONSIN...


CITY           SKY/WX    TMP DP  RH WIND       PRES   REMARKS
LA CROSSE      SUNNY     65  33  30 NW15      30.00F
PRAIRIE DU CHI SUNNY     66  30  25 NW13G20   30.02F
BOSCOBEL       SUNNY     68  36  30 W13       30.00F
LONE ROCK      SUNNY     70  34  26 NW16      29.97F
PLATTEVILLE    SUNNY     66  33  29 NW16      30.02F
FORT MC COY    SUNNY     64  27  24 NW10G25   29.98F
CAMP DOUGLAS   MOSUNNY   64  30  27 W20G26    29.95F
VIROQUA        FAIR      63  31  30 NW12      30.00F
WIS DELLS      SUNNY     65  28  24 W18       29.94F
$$

...ELSEWHERE IN WISCONSIN...


CITY           SKY/WX    TMP DP  RH WIND       PRES   REMARKS
MILWAUKEE      MOSUNNY   66  32  28 W17G26    29.89F
MADISON        MOSUNNY   67  31  26 W15G23    29.94F
GREEN BAY      SUNNY     64  33  31 W17G25    29.82F
EAU CLAIRE     SUNNY     60  30  32 NW16      29.98F
BLACK RVR FLS  FAIR      64  28  26 W15G23    29.97F
MEDFORD        SUNNY     57  30  35 NW15G29   29.92R
WAUSAU         SUNNY     60  26  27 NW17G29   29.87F
WIS RAPIDS     SUNNY     62  31  31 NW21G30   29.94S
MARSHFIELD     SUNNY     60  33  36 W21G30    29.93R
RICE LAKE      SUNNY     58  30  34 W15G21    29.99F
$$

...NORTHEAST IOWA...


CITY           SKY/WX    TMP DP  RH WIND       PRES   REMARKS
DECORAH        SUNNY     64  32  29 NW16      30.03F
MASON CITY     SUNNY     63  34  33 NW16      30.11S
CHARLES CITY   SUNNY     64  32  29 NW16G24   30.08F
OELWEIN        SUNNY     63  37  39 NW18      30.07F
$$

...ELSEWHERE IN IOWA...


CITY           SKY/WX    TMP DP  RH WIND       PRES   REMARKS
DES MOINES     MOSUNNY   70  39  32 NE9       30.09F
IOWA CITY      SUNNY     68  41  37 NW10G16   30.07F
FORT DODGE     SUNNY     66  37  34 N5        30.12F
$$

...NORTHERN ILLINOIS...


CITY           SKY/WX    TMP DP  RH WIND       PRES   REMARKS
CHICAGO-OHARE  MOSUNNY   69  39  33 W14       29.93F
CHICAGO-MIDWAY MOSUNNY   72  42  34 W12       29.94F
MOLINE         SUNNY     70  39  32 N8        30.02F
ROCKFORD       MOSUNNY   70  37  29 W16       29.99S
PEORIA         SUNNY     71  52  50 W6        30.02F
$$

NOTE: "FAIR" INDICATES FEW OR NO CLOUDS BELOW 12,000 FEET WITH NO
SIGNIFICANT WEATHER AND/OR OBSTRUCTIONS TO VISIBILITY. WIND
SPEEDS ARE IN MILES-PER-HOUR.



USA.gov is the U.S. government's official web portal to all federal, state and local government web resources and services.